TimeEDT,TemperatureF,Dew PointF,Humidity,Sea Level PressureIn,VisibilityMPH,Wind Direction,Wind SpeedMPH,Gust SpeedMPH,PrecipitationIn,Events,Conditions,WindDirDegrees,DateUTC
12:53 AM,80.1,66.9,64,29.99,10.0,ENE,9.2,-,N/A,,Clear,60,2013-10-14 04:53:00
1:53 AM,79.0,66.0,64,29.98,10.0,ENE,9.2,-,N/A,,Clear,70,2013-10-14 05:53:00
2:53 AM,79.0,64.9,62,29.97,10.0,ENE,9.2,-,N/A,,Clear,70,2013-10-14 06:53:00
3:53 AM,79.0,66.0,64,29.96,10.0,ENE,6.9,-,N/A,,Clear,60,2013-10-14 07:53:00
4:53 AM,77.0,66.9,71,29.94,10.0,ENE,4.6,-,N/A,,Clear,60,2013-10-14 08:53:00
5:53 AM,77.0,64.0,64,29.94,10.0,NE,6.9,-,N/A,,Clear,50,2013-10-14 09:53:00
6:53 AM,77.0,69.1,76,29.94,10.0,NE,5.8,-,N/A,,Clear,50,2013-10-14 10:53:00
7:53 AM,78.1,69.1,74,29.96,10.0,NE,5.8,-,N/A,,Clear,50,2013-10-14 11:53:00
8:53 AM,81.0,66.0,60,29.98,10.0,NE,5.8,-,N/A,,Clear,50,2013-10-14 12:53:00
9:53 AM,82.0,68.0,62,30.00,10.0,NE,10.4,-,N/A,,Partly Cloudy,40,2013-10-14 13:53:00
10:53 AM,82.9,64.0,53,30.01,10.0,NE,11.5,16.1,N/A,,Clear,40,2013-10-14 14:53:00
11:53 AM,84.0,66.9,56,30.01,10.0,NNE,9.2,-,N/A,,Clear,30,2013-10-14 15:53:00
12:53 PM,84.0,64.0,51,29.98,10.0,NE,11.5,-,N/A,,Clear,40,2013-10-14 16:53:00
1:53 PM,84.0,64.0,51,29.96,10.0,NNE,11.5,-,N/A,,Clear,30,2013-10-14 17:53:00
2:53 PM,84.9,62.1,46,29.94,10.0,NE,10.4,-,N/A,,Clear,40,2013-10-14 18:53:00
3:53 PM,84.9,64.0,49,29.92,10.0,NNE,9.2,-,N/A,,Clear,30,2013-10-14 19:53:00
4:53 PM,84.9,63.0,48,29.91,10.0,NNE,8.1,-,N/A,,Clear,20,2013-10-14 20:53:00
5:53 PM,82.9,66.9,58,29.91,10.0,North,8.1,-,N/A,,Clear,10,2013-10-14 21:53:00
6:53 PM,80.1,68.0,67,29.92,10.0,North,5.8,-,N/A,,Clear,360,2013-10-14 22:53:00
7:53 PM,79.0,69.1,72,29.93,10.0,NNE,3.5,-,N/A,,Clear,30,2013-10-14 23:53:00
8:53 PM,79.0,69.1,72,29.95,10.0,Calm,Calm,-,N/A,,Clear,0,2013-10-15 00:53:00
9:53 PM,79.0,68.0,69,29.97,10.0,Calm,Calm,-,N/A,,Partly Cloudy,0,2013-10-15 01:53:00
10:53 PM,79.0,68.0,69,29.98,10.0,NE,3.5,-,N/A,,Clear,50,2013-10-15 02:53:00
11:53 PM,79.0,69.1,72,29.97,10.0,ENE,6.9,-,N/A,,Partly Cloudy,70,2013-10-15 03:53:00